Location: Newark
(51.3318°N, 0.0053°E)
Time: 05:19:34
(UTC+00:00)

NANOSAT C BR1 - Visible Passes

Search period start: 28 June 2022 00:00
Search period end: 08 July 2022 00:00
Orbit: 583 x 601 km, 98.0° (Epoch: 27 June)

Date Brightness Start Highest point End Pass type
(mag) Time Alt. Az. Time Alt. Az. Time Alt. Az.
28 Jun ? 00:48:12 10° ENE 00:49:33 11° E 00:50:52 10° ESE visible
28 Jun ? 02:21:31 10° NNE 02:25:44 88° ESE 02:29:57 10° SSW visible
29 Jun ? 00:56:14 10° ENE 00:58:24 14° E 01:00:34 10° ESE visible
29 Jun ? 02:30:15 10° NNE 02:34:28 77° WNW 02:38:41 10° SSW visible
30 Jun ? 01:04:31 10° NE 01:07:14 16° E 01:09:56 10° SE visible
30 Jun ? 02:39:01 10° N 02:43:12 63° WNW 02:47:22 10° SSW visible
01 Jul ? 01:12:57 10° NE 01:16:04 20° E 01:19:09 10° SE visible
01 Jul ? 02:47:47 10° N 02:51:54 52° WNW 02:55:59 10° SW visible
02 Jul ? 01:21:27 10° NE 01:24:52 23° E 01:28:15 10° SSE visible
02 Jul ? 02:56:35 10° N 03:00:35 43° WNW 03:04:35 10° SW visible
03 Jul ? 01:30:00 10° NE 01:33:39 28° E 01:37:18 10° SSE visible
04 Jul ? 01:38:34 10° NNE 01:42:25 33° E 01:46:11 10° SSE visible
05 Jul ? 01:47:11 10° NNE 01:51:11 40° E 01:54:59 11° SSE visible
06 Jul ? 01:55:50 10° NNE 01:59:56 49° E 02:03:45 12° S visible
07 Jul ? 02:04:29 10° NNE 02:08:40 59° ESE 02:12:32 12° S visible
